Other Public Products
Issued by NWS Grand Forks, ND

Home | Current Version | Previous Version | Graphics & Text | Print | Product List | Glossary On
Versions: 1 2 3 4 5 6 7 8 9 10 11 12 13 14 15 16 17 18 19 20 21 22 23 24 25 26 27 28 29 30 31 32 33 34 35 36 37 38 39 40 41 42 43 44 45 46 47 48 49 50
000
FPUS83 KFGF 200110
OPUFGF
PRAIRIE TO PINES WEATHER ROUNDUP
NATIONAL WEATHER SERVICE EASTERN NORTH DAKOTA/GRAND FORKS ND
800 PM CDT FRI SEP 19 2014

 **SATELLITE DATA USED TO AUGMENT SKY COVER AT AUTOMATED STATIONS**
 *****  WEATHER ACROSS EASTERN NORTH DAKOTA  *****

CITY           SKY/WX    TMP DP  RH WIND       PRES   REMARKS
GRAND FORKS    CLEAR     72  55  55 W9        29.52R
GRAND FORKS AF CLEAR     70  56  61 NW7       29.54R
GRAND CITY NWS   N/A     72 N/A N/A W7          N/A
BUXTON         NOT AVBL
DEVILS LAKE    PTCLDY    70  55  60 NW16      29.61R
FARGO          MOCLDY    73  61  65 SW9       29.57R
WAHPETON ARPT  CLEAR     72  61  68 SW7       29.62R
$$

 *****  WEATHER ACROSS CENTRAL AND WESTERN NORTH DAKOTA  *****

CITY           SKY/WX    TMP DP  RH WIND       PRES   REMARKS
JAMESTOWN      MOCLDY    73  52  47 W12       29.64R
BISMARCK       CLOUDY    74  53  48 NW10      29.72R
MINOT          CLEAR     65  55  70 W14       29.71R
MINOT AFB      CLEAR     79  52  38 NW24G31   29.57R
GARRISON         N/A     66  56  70 NW7       29.73R
WILLISTON      CLEAR     68  50  52 NW8       29.77R
DICKINSON      CLOUDY    69  51  52 NW6       29.79R
HETTINGER      CLOUDY    68  48  48 W9        29.83R
$$

 *****  OTHER OBSERVATIONS NORTHEAST NORTH DAKOTA  *****

CITY           SKY/WX    TMP DP  RH WIND       PRES   REMARKS
WALHALLA         N/A     63  57  82 NW17G24   29.62R
LANGDON        FAIR      61  55  82 N9        29.63R
CAVALIER       MOCLDY    64  55  72 N15G22    29.59R
GRAFTON        FAIR      64  61  88 N20       29.55R
CANDO          FAIR      66  57  72 NW10      29.65R
FORT TOTTEN      N/A     69  54  58 NW7       29.95
ROLLA          LGT RAIN  63  57  82 NW9       29.68R
RUGBY          FAIR      64  59  82 NW10      29.67R
 ***** THE ABOVE OBSERVATIONS ARE NON NWS ARE NOT QUALITY
        CONTROLLED AND MAY MIS-REPORT RAIN FOR SNOW...
$$

 *****  OTHER OBSERVATIONS SOUTHEAST NORTH DAKOTA *****

CITY           SKY/WX    TMP DP  RH WIND       PRES   REMARKS
COOPERSTOWN    NOT AVBL
VALLEY CITY    FAIR      72  55  56 W10       29.62R
OAKES            N/A     73  55  53 W8        29.65R
GWINNER        CLEAR     70  57  64 SW7       29.65R
BUFFALO        NOT AVBL
WYNDMERE         N/A     70  66  88 SW3         N/A
 ***** THE ABOVE OBSERVATIONS ARE NON NWS ARE NOT QUALITY
       CONTROLLED AND MAY MIS-REPORT RAIN FOR SNOW...
$$

  *****  WEATHER ACROSS NORTHERN MINNESOTA  *****

CITY           SKY/WX    TMP DP  RH WIND       PRES   REMARKS
FLAG ISLAND    LGT RAIN  61  61 100 CALM      29.52S
WARROAD        TSTM      64  61  88 E8        29.51F
ROSEAU         TSTM      68  63  83 S3        29.50F
HALLOCK        MOCLDY    64  61  88 N17       29.53R
THF RVR FALLS  CLEAR     70  64  83 S10       29.52F
HALSTAD          N/A     69  61  74 SW7         N/A
FOSSTON        PTCLDY    64  63  94 S8        29.57R
BAUDETTE       MOCLDY    64  62  93 CALM      29.54S
WASKISH        PTCLDY    64  63  94 CALM      29.56F
CROOKSTON      CLEAR     70  63  78 S7        29.53R
$$
  *****  WEATHER ACROSS CENTRAL AND WEST MINNESOTA  *****

CITY           SKY/WX    TMP DP  RH WIND       PRES   REMARKS
BEMIDJI        PTCLDY    63  61  94 S5        29.59S FOG
PARK RAPIDS    PTCLDY    64  62  93 S8        29.62S
WADENA         CLEAR     63  61  94 S3        29.64R
DETROIT LAKES  PTCLDY    66  63  88 S7        29.62S
MOORHEAD       MOCLDY    73  70  88 SW9       29.58S
FERGUS FALLS   CLEAR     66  63  88 S6        29.63R
ELBOW LAKE     FAIR      64  63  97 S6        29.65R
MORRIS MN      CLEAR     66  64  94 S6        29.65S
STAPLES        PTCLDY    63  61  94 S3        29.65R FOG
WHEATON        CLEAR     68  63  83 S7        29.66R
$$
  *****  WEATHER ELSEWHERE ACROSS MINNESOTA  *****

CITY           SKY/WX    TMP DP  RH WIND       PRES   REMARKS
DULUTH         CLOUDY    64  60  87 W13       29.64S FOG
INTRNTL FALLS  MOCLDY    63  61  93 VRB5      29.57R
ELY            CLOUDY    59  57  94 SW6       29.63R FOG
CLOQUET        CLOUDY    63  61  94 SW7       29.65S
BRAINERD       CLOUDY    62  62 100 SW6       29.65R FOG
HIBBING        CLOUDY    62  60  93 SW3       29.64R FOG
ALEXANDRIA     PTCLDY    66  64  93 SW8       29.67S
SAINT CLOUD    MOCLDY    66  62  87 CALM      29.65F FOG
MINNEAPOLIS    CLOUDY    73  63  70 VRB7      29.67S
$$

  *****  WEATHER ACROSS SOUTH DAKOTA  *****

CITY           SKY/WX    TMP DP  RH WIND       PRES   REMARKS
SIOUX FALLS    PTCLDY    76  65  68 W5        29.71R
BROOKINGS      NOT AVBL
WATERTOWN      CLEAR     68  62  81 SW6       29.71R
HURON          MOCLDY    72  59  63 NW5       29.70R
SISSETON         N/A     72  66  81 W9        29.64R
ABERDEEN       CLEAR     69  58  67 SW7       29.68R
MITCHELL       LGT RAIN  78  66  66 SW5       29.71R
PIERRE         CLEAR     73  55  53 NW10      29.75R
MOBRIDGE       PTCLDY    71  54  54 NW9       29.73R
RAPID CITY     PTCLDY    73  49  42 N13       29.88R
$$

  *****  SOME WEATHER IN NEARBY STATES *****

CITY           SKY/WX    TMP DP  RH WIND       PRES   REMARKS
GLASGOW MT     PTCLDY    69  53  56 NW5       29.80R
GREAT FALLS MT CLEAR     67  41  38 W15       29.96R
CHEYENNE WY    CLOUDY    77  39  25 NW5       30.05R
SCOTTSBLUFF NE CLEAR     78  49  35 E5        29.88R
OMAHA NE       PTCLDY    80  68  66 S17       29.79S
DES MOINES IA  PTCLDY    73  65  75 S14       29.85S
DAVENPORT IA   PTCLDY    69  53  56 S13       29.93F
CHICAGO IL     PTCLDY    68  46  45 S9        29.99R
EAU CLAIRE WI  MOCLDY    71  59  65 S14       29.72S
LA CROSSE WI   CLEAR     70  57  63 S9        29.80R
$$

  *****  SOME NATIONAL WEATHER *****

CITY           SKY/WX    TMP DP  RH WIND       PRES   REMARKS
LA GUARDIA NY  PTCLDY    61  46  57 SE12      30.38R
RALEIGH NC     PTCLDY    68  58  70 E6        30.22R
ATLANTA GA     PTCLDY    75  64  68 E12       30.10R
NEW ORLEANS LA PTCLDY    80  67  64 E7        29.94R
OKLAHOMA CITY  PTCLDY    77  65  66 SE7       29.95R
ALBUQUERQUE NM PTCLDY    79  55  43 SW12      30.03R
SALT LAKE CITY PTCLDY    79  47  32 NW9       30.02R
LOS ANGELES CA MOSUNNY   71  61  70 W13       29.85R
BOISE ID       CLEAR     78  46  32 W9        30.01S
SEATTLE WA     MOSUNNY   72  57  59 S6        30.08S
$$

*** WEATHER ACROSS MANITOBA...SASKATCHEWAN AND ONTARIO ***
                ***ONTARIO***

CITY           SKY/WX    TMP DP  RH WIND       PRES   REMARKS
GERALDTON      LGT RAIN  52  52 100 SW12G20   29.55F FOG
THUNDER BAY    LGT RAIN  61  59  94 W8        29.59R FOG
SIOUX LOOKOUT  LGT RAIN  59  59 100 SW3       29.52S FOG
TORONTO        MOCLDY    52  46  82 E7        30.14F
BIG TROUT LK   CLOUDY    48  46  93 N9        29.51R
PICKLE LAKE    DRIZZLE   59  57  94 N7        29.49R FOG
DRYDEN         CLOUDY    61  61 100 SW8       29.54R FOG
KENORA         FOG       61  61 100 SW6       29.55R VSB 1/4
$$
                *** MANITOBA***

CITY           SKY/WX    TMP DP  RH WIND       PRES   REMARKS
BRANDON        CLOUDY    61  54  77 NW6       29.67R
DAUPHIN        CLOUDY    55  54  94 NE7       29.67R
ISLAND LAKE    CLOUDY    52  48  87 N6        29.59R
PILOT MOUND    NOT AVBL
THE PAS        CLOUDY    54  46  76 CALM      29.62S
THOMPSON       MOCLDY    37  37 100 N3        29.63R
WINNIPEG       CLOUDY    61  57  88 N9        29.61R
LYNN LAKE      PTCLDY    45  37  76 NE3       29.62R
CHURCHILL      CLOUDY    41  36  81 N21G29    29.57R
GILLAM         MOCLDY    46  37  71 NW10      29.59R
$$
                ***SASKATCHEWAN***

CITY           SKY/WX    TMP DP  RH WIND       PRES   REMARKS
ESTEVAN        NOT AVBL
KINDERSLEY     PTCLDY    68  46  45 W5        29.75S
LLOYDMINSTER   PTCLDY    61  45  55 W10       29.69S
PRINCE ALBERT  PTCLDY    63  52  67 W6        29.64S
REGINA         PTCLDY    61  52  72 W7        29.74R
YORKTON        CLEAR     57  52  82 W6        29.69R



USA.gov is the U.S. government's official web portal to all federal, state and local government web resources and services.